Location: Treviso
(45.6669°N, 12.2430°E)
Time: 17:33:58
(UTC+02:00)

CUBESAT XI-V - Pass Details

Date: 30 April 2019
Orbit: 668 x 694 km, 98.0° (Epoch: 23 May)

Event Time Altitude Azimuth Distance (km) Brightness Sun altitude
Exits shadow 02:30:02 - 111° (ESE) 2,208 ? -26.9°
Reaches altitude 10° 02:30:16 10° 109° (ESE) 2,134 ? -26.9°
Maximum altitude 02:33:39 20° 63° (ENE) 1,559 ? -26.7°
Drops below altitude 10° 02:37:01 10° 16° (NNE) 2,133 ? -26.5°
Sets 02:39:44 0° 0° (N) 3,048 ? -26.3°
